| time (UTC) | temp F | wind direction | speed knots | gust knots | rain 1hr in | rain 24hr in | rain mn in | humidity % | barometer mb |
| 20260508171756 | 77 | 134 | 2.6 | 4.3 | 0.00 | 0.00 | 0.00 | ||
| 20260508170257 | 76 | 124 | 3.5 | 0.9 | 0.00 | 0.00 | 0.00 | ||
| 20260508164758 | 75 | 173 | 3.5 | 2.6 | 0.00 | 0.00 | 0.00 | ||
| 20260508163259 | 76 | 174 | 5.2 | 3.5 | 0.00 | 0.00 | 0.00 | ||
| 20260508161803 | 74 | 170 | 1.7 | 5.2 | 0.00 | 0.00 | 0.00 | ||
| 20260508160301 | 76 | 124 | 0.0 | 0.9 | 0.00 | 0.00 | 0.00 | ||
| 20260508150307 | 68 | 262 | 0.9 | 0.0 | 0.00 | 0.00 | 0.00 | ||
| 20260508144808 | 67 | 285 | 0.9 | 0.0 | 0.00 | 0.00 | 0.00 | ||
| 20260508143309 | 67 | 49 | 0.0 | 0.0 | 0.00 | 0.00 | 0.00 | ||
| 20260508141810 | 67 | 49 | 0.0 | 0.0 | 0.00 | 0.00 | 0.00 | ||
| 20260508140311 | 68 | 49 | 0.0 | 0.0 | 0.00 | 0.00 | 0.00 | ||
| 20260508134812 | 63 | 49 | 0.0 | 0.0 | 0.00 | 0.00 | 0.00 | ||
| 20260508133314 | 59 | 49 | 0.0 | 0.0 | 0.00 | 0.00 | 0.00 | ||
| 20260508131815 | 55 | 49 | 0.0 | 0.0 | 0.00 | 0.00 | 0.00 | ||
| 20260508130317 | 54 | 96 | 0.0 | 0.9 | 0.00 | 0.00 | 0.00 | ||
| 20260508121822 | 44 | 124 | 0.0 | 0.0 | 0.00 | 0.00 | 0.00 | ||
| 20260508120323 | 45 | 124 | 0.0 | 0.0 | 0.00 | 0.00 | 0.00 | ||
| 20260508114825 | 46 | 111 | 0.0 | 0.0 | 0.00 | 0.00 | 0.00 | ||
| 20260508113327 | 44 | 172 | 0.0 | 0.0 | 0.00 | 0.00 | 0.00 | ||
| 20260508111828 | 41 | 172 | 0.0 | 0.0 | 0.00 | 0.00 | 0.00 | ||
| 20260508110330 | 41 | 172 | 0.0 | 0.0 | 0.00 | 0.00 | 0.00 | ||
| 20260508104831 | 41 | 172 | 0.0 | 0.0 | 0.00 | 0.00 | 0.00 | ||
| 20260508103333 | 46 | 172 | 0.0 | 0.0 | 0.00 | 0.00 | 0.00 | ||
| 20260508101835 | 44 | 172 | 0.0 | 0.0 | 0.00 | 0.00 | 0.00 | ||
| 20260508100336 | 41 | 172 | 0.0 | 0.0 | 0.00 | 0.00 | 0.00 | ||
| 20260508093340 | 42 | 172 | 0.0 | 0.0 | 0.00 | 0.00 | 0.00 | ||
| 20260508091841 | 44 | 172 | 0.0 | 0.0 | 0.00 | 0.00 | 0.00 | ||
| 20260508090343 | 41 | 172 | 0.0 | 0.0 | 0.00 | 0.00 | 0.00 | ||
| 20260508084844 | 41 | 172 | 0.0 | 0.0 | 0.00 | 0.00 | 0.00 | ||
| 20260508083346 | 44 | 172 | 0.0 | 0.0 | 0.00 | 0.00 | 0.00 | ||
| 20260508081848 | 45 | 172 | 0.0 | 0.0 | 0.00 | 0.00 | 0.00 | ||
| 20260508080349 | 45 | 172 | 0.0 | 0.0 | 0.00 | 0.00 | 0.00 | ||
| 20260508074853 | 46 | 172 | 0.0 | 0.0 | 0.00 | 0.00 | 0.00 | ||
| 20260508073352 | 44 | 172 | 0.0 | 0.0 | 0.00 | 0.00 | 0.00 | ||
| 20260508071853 | 44 | 172 | 0.0 | 0.0 | 0.00 | 0.00 | 0.00 | ||
| 20260508070355 | 46 | 172 | 0.0 | 0.0 | 0.00 | 0.00 | 0.00 | ||
| 20260508063358 | 51 | 172 | 0.0 | 0.0 | 0.00 | 0.00 | 0.00 | ||
| 20260508061859 | 51 | 172 | 0.0 | 0.0 | 0.00 | 0.00 | 0.00 | ||
| 20260508060400 | 48 | 172 | 0.0 | 0.0 | 0.00 | 0.00 | 0.00 | ||
| 20260508054902 | 50 | 172 | 0.0 | 0.0 | 0.00 | 0.00 | 0.00 | ||
| 20260508053403 | 52 | 172 | 0.0 | 0.0 | 0.00 | 0.00 | 0.00 | ||
| 20260508051904 | 52 | 172 | 0.0 | 0.0 | 0.00 | 0.00 | 0.00 | ||
| 20260508050405 | 52 | 172 | 0.0 | 0.0 | 0.00 | 0.00 | 0.00 | ||
| 20260508044906 | 52 | 194 | 0.0 | 0.0 | 0.00 | 0.00 | 0.00 | ||
| 20260508043408 | 50 | 194 | 0.0 | 0.0 | 0.00 | 0.00 | 0.00 | ||
| 20260508041909 | 51 | 194 | 0.0 | 0.0 | 0.00 | 0.00 | 0.00 | ||
| 20260508040410 | 55 | 194 | 0.0 | 0.0 | 0.00 | 0.00 | 0.00 | ||
| 20260508034911 | 54 | 194 | 0.0 | 0.0 | 0.00 | 0.00 | 0.00 | ||
| 20260508033412 | 52 | 194 | 0.0 | 0.0 | 0.00 | 0.00 | 0.00 | ||
| 20260508031913 | 54 | 194 | 0.0 | 0.0 | 0.00 | 0.00 | 0.00 | ||
| 20260508030414 | 55 | 194 | 0.0 | 0.0 | 0.00 | 0.00 | 0.00 | ||
| 20260508024915 | 56 | 194 | 0.0 | 0.0 | 0.00 | 0.00 | 0.00 | ||
| 20260508023416 | 58 | 194 | 0.0 | 0.0 | 0.00 | 0.00 | 0.00 | ||
| 20260508020417 | 59 | 194 | 0.0 | 0.0 | 0.00 | 0.00 | 0.00 | ||
| 20260508014918 | 62 | 194 | 0.0 | 0.0 | 0.00 | 0.00 | 0.00 | ||
| 20260508013418 | 67 | 194 | 0.0 | 0.0 | 0.00 | 0.00 | 0.00 | ||
| 20260508011919 | 71 | 207 | 0.0 | 1.7 | 0.00 | 0.00 | 0.00 | ||
| 20260508010419 | 71 | 245 | 0.9 | 2.6 | 0.00 | 0.00 | 0.00 | ||
| 20260508004919 | 72 | 238 | 3.5 | 5.2 | 0.00 | 0.00 | 0.00 | ||
| 20260508001919 | 75 | 233 | 1.7 | 2.6 | 0.00 | 0.00 | 0.00 | ||
| 20260508000419 | 75 | 267 | 1.7 | 0.9 | 0.00 | 0.00 | 0.00 | ||
| 20260507234919 | 74 | 218 | 4.3 | 0.0 | 0.00 | 0.00 | 0.00 | ||
| 20260507233419 | 76 | 267 | 2.6 | 1.7 | 0.00 | 0.00 | 0.00 | ||
| 20260507231920 | 76 | 238 | 1.7 | 1.7 | 0.00 | 0.00 | 0.00 | ||
| 20260507230420 | 76 | 264 | 3.5 | 3.5 | 0.00 | 0.00 | 0.00 | ||
| 20260507224920 | 77 | 208 | 5.2 | 1.7 | 0.00 | 0.00 | 0.00 | ||
| 20260507223421 | 76 | 253 | 4.3 | 3.5 | 0.00 | 0.00 | 0.00 | ||
| 20260507221921 | 77 | 248 | 1.7 | 7.8 | 0.00 | 0.00 | 0.00 | ||
| 20260507220422 | 76 | 231 | 5.2 | 4.3 | 0.00 | 0.00 | 0.00 | ||
| 20260507214922 | 76 | 321 | 5.2 | 3.5 | 0.00 | 0.00 | 0.00 | ||
| 20260507213423 | 76 | 236 | 5.2 | 4.3 | 0.00 | 0.00 | 0.00 | ||
| 20260507211922 | 75 | 187 | 6.1 | 3.5 | 0.00 | 0.00 | 0.00 | ||
| 20260507210423 | 73 | 243 | 4.3 | 5.2 | 0.00 | 0.00 | 0.00 | ||
| 20260507204923 | 74 | 269 | 4.3 | 0.9 | 0.00 | 0.00 | 0.00 | ||
| 20260507201924 | 73 | 245 | 6.1 | 5.2 | 0.00 | 0.00 | 0.00 | ||
| 20260507200424 | 73 | 228 | 4.3 | 2.6 | 0.00 | 0.00 | 0.00 | ||
| 20260507194925 | 73 | 245 | 2.6 | 4.3 | 0.00 | 0.00 | 0.00 | ||
| 20260507193425 | 71 | 246 | 1.7 | 0.0 | 0.00 | 0.00 | 0.00 | ||
| 20260507190426 | 70 | 298 | 7.8 | 1.7 | 0.00 | 0.00 | 0.00 | ||
| 20260507184927 | 69 | 250 | 0.9 | 0.9 | 0.00 | 0.00 | 0.00 | ||
| 20260507183427 | 69 | 294 | 1.7 | 0.9 | 0.00 | 0.00 | 0.00 | ||
| 20260507181928 | 67 | 232 | 0.0 | 0.0 | 0.00 | 0.00 | 0.00 | ||
| 20260507180428 | 67 | 191 | 1.7 | 5.2 | 0.00 | 0.00 | 0.00 | ||
| 20260507174929 | 68 | 210 | 2.6 | 1.7 | 0.00 | 0.00 | 0.00 | ||
| 20260507173430 | 66 | 245 | 0.0 | 0.0 | 0.00 | 0.00 | 0.00 |